Date String (YYYY-MM-DD hh:mm:ss) UTC,Instrument flags,Ambient pressure (hPa),Sample flow (lpm),Bypass flow (lpm),Sample temperature (°C),Ambient temperature (°C),ASC tube jacket temperature (°C),LED temperature (°C),Box temperature (°C),Sample RH (%),Span deviation,Mass concentration (μg/m³),Mass concentration (μg/m³),Mass concentration (μg/m³)
DateTimeUTC,F1_M11,P_M11,Q1_M11,Q2_M11,T1_M11,T2_M11,T3_M11,T4_M11,T5_M11,U1_M11,ZSPAN_M11,X0_M11,X2_M11,X1_M11
2023-05-26 01:00:00,,0828.7,5.00,0.00,29.2,26.4,00.0,37.6,30.6,26.1,0000.0,0007.90,0003.58,0002.87
2023-05-26 01:01:00,,0828.7,5.00,0.00,29.1,26.6,00.0,37.6,30.7,26.4,0000.0,0007.90,0003.57,0002.86
2023-05-26 01:02:00,,0828.7,5.00,0.00,29.1,26.8,00.0,37.5,30.7,26.1,0000.0,0008.32,0003.56,0002.86
2023-05-26 01:03:00,,0828.7,5.00,0.00,29.1,27.0,00.0,37.5,30.7,26.0,0000.0,0008.15,0003.51,0002.84
2023-05-26 01:04:00,,0828.7,5.00,0.00,29.1,27.1,00.0,37.5,30.7,26.3,0000.0,0007.84,0003.46,0002.83
2023-05-26 01:05:00,,0828.7,4.99,0.00,29.1,27.3,00.0,37.5,30.7,26.1,0000.0,0007.76,0003.41,0002.79
2023-05-26 01:06:00,,0828.8,5.00,0.00,29.1,27.3,00.0,37.5,30.7,26.1,0000.0,0007.66,0003.36,0002.76
2023-05-26 01:07:00,,0828.7,5.00,0.00,29.1,27.4,00.0,37.5,30.7,26.1,0000.0,0007.28,0003.35,0002.75
2023-05-26 01:08:00,,0828.7,5.00,0.00,29.2,27.4,00.0,37.5,30.7,26.2,0000.0,0006.74,0003.35,0002.75
2023-05-26 01:09:00,,0828.7,5.00,0.00,29.2,27.5,00.0,37.5,30.8,26.2,0000.0,0006.82,0003.32,0002.75
2023-05-26 01:10:00,,0828.7,5.00,0.00,29.2,27.5,00.0,37.5,30.8,26.3,0000.0,0007.15,0003.30,0002.75
2023-05-26 01:11:00,,0828.7,4.99,0.00,29.2,27.6,00.0,37.5,30.8,26.2,0000.0,0007.87,0003.33,0002.76
2023-05-26 01:12:00,,0828.7,5.00,0.00,29.2,27.6,00.0,37.5,30.8,25.9,0000.0,0007.88,0003.34,0002.76
2023-05-26 01:13:00,,0828.7,5.00,0.00,29.2,27.6,00.0,37.5,30.8,25.8,0000.0,0007.52,0003.34,0002.74
2023-05-26 01:14:00,,0828.7,5.00,0.00,29.2,27.7,00.0,37.5,30.8,26.4,0000.0,0007.61,0003.38,0002.74
2023-05-26 01:15:00,,0828.7,5.00,0.00,29.2,27.7,00.0,37.6,30.9,26.4,0000.0,0007.64,0003.40,0002.76
2023-05-26 01:16:00,,0828.7,5.00,0.00,29.2,27.8,00.0,37.6,30.9,26.4,0000.0,0007.93,0003.45,0002.77
2023-05-26 01:17:00,,0828.7,5.00,0.00,29.3,27.8,00.0,37.6,30.9,26.4,0000.0,0007.95,0003.45,0002.78
2023-05-26 01:18:00,,0828.7,5.00,0.00,29.3,27.8,00.0,37.6,30.9,26.4,0000.0,0008.30,0003.43,0002.77
2023-05-26 01:19:00,,0828.8,5.00,0.00,29.3,27.9,00.0,37.6,30.9,26.6,0000.0,0008.34,0003.43,0002.76
2023-05-26 01:20:00,,0828.8,5.00,0.00,29.3,27.9,00.0,37.6,30.9,26.5,0000.0,0008.24,0003.45,0002.75
2023-05-26 01:21:00,,0828.8,5.00,0.00,29.3,27.9,00.0,37.6,31.0,26.3,0000.0,0008.00,0003.45,0002.74
2023-05-26 01:22:00,,0828.8,5.00,0.00,29.3,28.0,00.0,37.6,31.0,26.1,0000.0,0007.31,0003.42,0002.73
2023-05-26 01:23:00,,0828.7,5.00,0.00,29.4,28.0,00.0,37.7,31.0,26.3,0000.0,0007.28,0003.44,0002.72
2023-05-26 01:24:00,,0828.7,5.00,0.00,29.4,28.0,00.0,37.7,31.0,26.2,0000.0,0007.14,0003.43,0002.71
2023-05-26 01:25:00,,0828.7,5.00,0.00,29.4,28.1,00.0,37.7,31.1,26.1,0000.0,0007.47,0003.42,0002.70
2023-05-26 01:26:00,,0828.7,5.00,0.00,29.4,28.1,00.0,37.7,31.1,26.2,0000.0,0007.98,0003.39,0002.68
2023-05-26 01:27:00,,0828.7,5.00,0.00,29.5,28.2,00.0,37.7,31.1,26.3,0000.0,0008.32,0003.38,0002.68
2023-05-26 01:28:00,,0828.7,5.00,0.00,29.5,28.2,00.0,37.7,31.1,26.3,0000.0,0008.67,0003.38,0002.66
2023-05-26 01:29:00,,0828.7,5.00,0.00,29.5,28.2,00.0,37.8,31.1,26.1,0000.0,0008.37,0003.39,0002.66
2023-05-26 01:30:00,,0828.7,5.00,0.00,29.5,28.2,00.0,37.8,31.2,26.0,0000.0,0008.29,0003.39,0002.66
2023-05-26 01:31:00,,0828.7,5.00,0.00,29.5,28.3,00.0,37.8,31.2,25.1,0000.0,0008.24,0003.38,0002.67
2023-05-26 01:32:00,,0828.7,5.01,0.00,29.6,28.3,00.0,37.8,31.2,25.2,0000.0,0008.42,0003.39,0002.66
2023-05-26 01:33:00,,0828.7,5.00,0.00,29.6,28.3,00.0,37.8,31.2,26.0,0000.0,0009.03,0003.42,0002.65
2023-05-26 01:34:00,,0828.7,5.01,0.00,29.6,28.3,00.0,37.9,31.3,26.3,0000.0,0009.14,0003.44,0002.67
2023-05-26 01:35:00,,0828.7,5.00,0.00,29.6,28.4,00.0,37.9,31.3,26.1,0000.0,0009.45,0003.47,0002.70
2023-05-26 01:36:00,,0828.7,4.99,0.00,29.6,27.7,00.0,37.9,31.2,25.8,0000.0,0009.37,0003.50,0002.71
2023-05-26 01:37:00,,0828.7,5.00,0.00,29.6,26.0,00.0,37.8,30.9,25.6,0000.0,0009.33,0003.55,0002.72
2023-05-26 01:38:00,,0828.7,5.01,0.00,29.5,25.3,00.0,37.7,30.8,25.6,0000.0,0009.70,0003.54,0002.73
2023-05-26 01:39:00,,0828.6,5.01,0.00,29.4,25.4,00.0,37.7,30.7,25.7,0000.0,0009.51,0003.52,0002.73
2023-05-26 01:40:00,,0828.7,5.01,0.00,29.3,25.7,00.0,37.7,30.7,25.4,0000.0,0009.53,0003.52,0002.73
2023-05-26 01:41:00,,0828.7,4.99,0.00,29.3,26.1,00.0,37.7,30.7,25.3,0000.0,0009.45,0003.52,0002.73
2023-05-26 01:42:00,,0828.7,5.00,0.00,29.3,26.4,00.0,37.7,30.8,26.3,0000.0,0009.78,0003.56,0002.76
2023-05-26 01:43:00,,0828.7,5.00,0.00,29.3,26.7,00.0,37.7,30.8,27.2,0000.0,0009.85,0003.62,0002.79
2023-05-26 01:44:00,,0828.7,5.01,0.00,29.3,27.0,00.0,37.7,30.8,27.2,0000.0,0009.19,0003.61,0002.82
2023-05-26 01:45:00,,0828.7,5.00,0.00,29.3,27.2,00.0,37.7,30.9,27.0,0000.0,0009.02,0003.59,0002.82
2023-05-26 01:46:00,,0828.6,5.00,0.00,29.3,27.3,00.0,37.7,30.9,26.9,0000.0,0008.70,0003.55,0002.81
2023-05-26 01:47:00,,0828.6,4.99,0.00,29.3,27.5,00.0,37.7,30.9,26.7,0000.0,0008.57,0003.53,0002.82
2023-05-26 01:48:00,,0828.6,5.00,0.00,29.3,27.6,00.0,37.7,30.9,26.1,0000.0,0008.21,0003.50,0002.79
2023-05-26 01:49:00,,0828.6,5.00,0.00,29.3,27.7,00.0,37.7,31.0,25.9,0000.0,0008.43,0003.45,0002.76
2023-05-26 01:50:00,,0828.6,5.00,0.00,29.3,27.8,00.0,37.7,31.0,26.6,0000.0,0008.51,0003.45,0002.78
2023-05-26 01:51:00,,0828.6,5.01,0.00,29.4,27.8,00.0,37.7,31.0,26.8,0000.0,0008.52,0003.43,0002.78
2023-05-26 01:52:00,,0828.6,5.00,0.00,29.4,27.9,00.0,37.7,31.0,27.0,0000.0,0008.53,0003.44,0002.79
2023-05-26 01:53:00,,0828.6,5.00,0.00,29.4,27.9,00.0,37.7,31.0,27.0,0000.0,0008.45,0003.43,0002.78
2023-05-26 01:54:00,,0828.6,5.00,0.00,29.4,28.0,00.0,37.7,31.1,27.0,0000.0,0008.37,0003.39,0002.78
2023-05-26 01:55:00,,0828.6,5.00,0.00,29.4,28.0,00.0,37.7,31.1,26.6,0000.0,0008.43,0003.40,0002.77
2023-05-26 01:56:00,,0828.6,5.00,0.00,29.4,28.0,00.0,37.7,31.1,26.1,0000.0,0008.74,0003.43,0002.75
2023-05-26 01:57:00,,0828.6,5.00,0.00,29.5,28.1,00.0,37.8,31.1,26.2,0000.0,0008.86,0003.42,0002.74
2023-05-26 01:58:00,,0828.6,5.00,0.00,29.5,28.1,00.0,37.8,31.1,26.2,0000.0,0008.92,0003.44,0002.74
2023-05-26 01:59:00,,0828.6,5.00,0.00,29.5,28.1,00.0,37.8,31.1,25.7,0000.0,0008.98,0003.46,0002.75
